Time,TemperatureF,DewpointF,PressureIn,WindDirection,WindDirectionDegrees,WindSpeedMPH,WindSpeedGustMPH,Humidity,HourlyPrecipIn,Conditions,Clouds,dailyrainin,SoftwareType,DateUTC
2013-09-07 00:00:00,68.0,46.4,29.86,WNW,291,0.0,1.0,46,0.00,,,0.00,Wunderground v.1.15,2013-09-07 07:00:00,
2013-09-07 00:10:00,67.9,46.9,29.86,WNW,291,0.0,1.0,47,0.00,,,0.00,Wunderground v.1.15,2013-09-07 07:10:00,
2013-09-07 00:15:00,67.8,46.8,29.86,WNW,291,0.0,1.0,47,0.00,,,0.00,Wunderground v.1.15,2013-09-07 07:15:00,
2013-09-07 00:25:00,67.7,46.7,29.86,WNW,291,0.0,1.0,47,0.00,,,0.00,Wunderground v.1.15,2013-09-07 07:25:00,
2013-09-07 00:30:00,67.6,46.6,29.86,WNW,291,0.0,1.0,47,0.00,,,0.00,Wunderground v.1.15,2013-09-07 07:30:00,
2013-09-07 00:35:00,67.7,46.7,29.86,WNW,291,0.0,1.0,47,0.00,,,0.00,Wunderground v.1.15,2013-09-07 07:35:00,
2013-09-07 00:45:00,67.9,46.9,29.86,WNW,291,0.0,1.0,47,0.00,,,0.00,Wunderground v.1.15,2013-09-07 07:45:00,
2013-09-07 00:50:00,68.0,47.0,29.86,WNW,291,0.0,1.0,47,0.00,,,0.00,Wunderground v.1.15,2013-09-07 07:50:00,
2013-09-07 01:00:00,68.1,47.1,29.86,WNW,291,0.0,1.0,47,0.00,,,0.00,Wunderground v.1.15,2013-09-07 08:00:00,
2013-09-07 01:10:00,68.2,47.2,29.86,WNW,291,0.0,1.0,47,0.00,,,0.00,Wunderground v.1.15,2013-09-07 08:10:00,
2013-09-07 01:20:00,67.9,46.9,29.86,WNW,291,0.0,0.0,47,0.00,,,0.00,Wunderground v.1.15,2013-09-07 08:20:00,
2013-09-07 01:25:00,67.9,46.9,29.86,WNW,291,0.0,0.0,47,0.00,,,0.00,Wunderground v.1.15,2013-09-07 08:25:00,
2013-09-07 01:30:00,68.2,47.2,29.86,WNW,291,0.0,2.0,47,0.00,,,0.00,Wunderground v.1.15,2013-09-07 08:30:00,
2013-09-07 01:35:00,68.5,46.9,29.86,WNW,291,0.0,2.0,46,0.00,,,0.00,Wunderground v.1.15,2013-09-07 08:35:00,
2013-09-07 01:40:00,68.3,47.3,29.86,WNW,291,0.0,0.0,47,0.00,,,0.00,Wunderground v.1.15,2013-09-07 08:40:00,
2013-09-07 01:50:00,68.3,47.3,29.86,WNW,291,0.0,1.0,47,0.00,,,0.00,Wunderground v.1.15,2013-09-07 08:50:00,
2013-09-07 01:55:00,68.2,47.2,29.86,WNW,291,0.0,1.0,47,0.00,,,0.00,Wunderground v.1.15,2013-09-07 08:55:00,
2013-09-07 02:00:00,67.9,46.9,29.86,WNW,291,0.0,0.0,47,0.00,,,0.00,Wunderground v.1.15,2013-09-07 09:00:00,
2013-09-07 02:10:00,68.6,47.0,29.85,WNW,296,0.0,2.0,46,0.00,,,0.00,Wunderground v.1.15,2013-09-07 09:10:00,
2013-09-07 02:15:00,68.6,46.4,29.85,WNW,296,0.0,2.0,45,0.00,,,0.00,Wunderground v.1.15,2013-09-07 09:15:00,
2013-09-07 02:20:00,68.5,46.9,29.85,WNW,296,0.0,1.0,46,0.00,,,0.00,Wunderground v.1.15,2013-09-07 09:20:00,
2013-09-07 02:25:00,68.4,46.8,29.85,WNW,296,0.0,1.0,46,0.00,,,0.00,Wunderground v.1.15,2013-09-07 09:25:00,
2013-09-07 02:30:00,68.3,46.7,29.85,WNW,296,0.0,0.0,46,0.00,,,0.00,Wunderground v.1.15,2013-09-07 09:30:00,
2013-09-07 02:40:00,68.1,47.1,29.85,WNW,296,0.0,0.0,47,0.00,,,0.00,Wunderground v.1.15,2013-09-07 09:40:00,
2013-09-07 02:45:00,67.9,46.9,29.85,WNW,296,0.0,0.0,47,0.00,,,0.00,Wunderground v.1.15,2013-09-07 09:45:00,
2013-09-07 02:50:00,67.8,46.8,29.85,WNW,296,0.0,0.0,47,0.00,,,0.00,Wunderground v.1.15,2013-09-07 09:50:00,
2013-09-07 02:55:00,67.4,47.0,29.85,WNW,296,0.0,0.0,48,0.00,,,0.00,Wunderground v.1.15,2013-09-07 09:55:00,
2013-09-07 03:00:00,67.2,46.8,29.85,WNW,296,0.0,0.0,48,0.00,,,0.00,Wunderground v.1.15,2013-09-07 10:00:00,
2013-09-07 03:10:00,67.0,46.7,29.85,WNW,296,0.0,0.0,48,0.00,,,0.00,Wunderground v.1.15,2013-09-07 10:10:00,
2013-09-07 03:15:00,67.1,46.7,29.85,WNW,296,0.0,0.0,48,0.00,,,0.00,Wunderground v.1.15,2013-09-07 10:15:00,
2013-09-07 03:20:00,67.2,46.8,29.85,WNW,296,0.0,0.0,48,0.00,,,0.00,Wunderground v.1.15,2013-09-07 10:20:00,
2013-09-07 03:25:00,67.2,46.8,29.85,WNW,296,0.0,0.0,48,0.00,,,0.00,Wunderground v.1.15,2013-09-07 10:25:00,
2013-09-07 03:30:00,67.1,46.7,29.85,WNW,296,0.0,0.0,48,0.00,,,0.00,Wunderground v.1.15,2013-09-07 10:30:00,
2013-09-07 03:40:00,67.1,46.7,29.85,WNW,296,0.0,0.0,48,0.00,,,0.00,Wunderground v.1.15,2013-09-07 10:40:00,
2013-09-07 03:45:00,67.0,46.7,29.85,WNW,296,0.0,0.0,48,0.00,,,0.00,Wunderground v.1.15,2013-09-07 10:45:00,
2013-09-07 03:50:00,67.0,46.7,29.85,WNW,296,0.0,0.0,48,0.00,,,0.00,Wunderground v.1.15,2013-09-07 10:50:00,
2013-09-07 04:00:00,67.0,46.7,29.85,WNW,296,0.0,0.0,48,0.00,,,0.00,Wunderground v.1.15,2013-09-07 11:00:00,
2013-09-07 04:05:00,67.0,46.7,29.84,WNW,296,0.0,0.0,48,0.00,,,0.00,Wunderground v.1.15,2013-09-07 11:05:00,
2013-09-07 04:10:00,66.9,46.6,29.84,WNW,296,0.0,1.0,48,0.00,,,0.00,Wunderground v.1.15,2013-09-07 11:10:00,
2013-09-07 04:20:00,67.1,46.7,29.84,WNW,296,0.0,1.0,48,0.00,,,0.00,Wunderground v.1.15,2013-09-07 11:20:00,
2013-09-07 04:25:00,67.4,47.0,29.84,WNW,296,0.0,1.0,48,0.00,,,0.00,Wunderground v.1.15,2013-09-07 11:25:00,
2013-09-07 04:30:00,67.8,46.8,29.84,WNW,296,0.0,1.0,47,0.00,,,0.00,Wunderground v.1.15,2013-09-07 11:30:00,
2013-09-07 04:35:00,67.9,46.9,29.84,WNW,296,0.0,1.0,47,0.00,,,0.00,Wunderground v.1.15,2013-09-07 11:35:00,
2013-09-07 04:45:00,67.4,47.0,29.84,WNW,296,0.0,1.0,48,0.00,,,0.00,Wunderground v.1.15,2013-09-07 11:45:00,
2013-09-07 04:50:00,67.2,46.8,29.84,WNW,296,0.0,1.0,48,0.00,,,0.00,Wunderground v.1.15,2013-09-07 11:50:00,
2013-09-07 04:55:00,66.9,46.6,29.84,WNW,296,0.0,1.0,48,0.00,,,0.00,Wunderground v.1.15,2013-09-07 11:55:00,
2013-09-07 05:05:00,66.5,46.7,29.84,WNW,296,0.0,1.0,49,0.00,,,0.00,Wunderground v.1.15,2013-09-07 12:05:00,
2013-09-07 05:10:00,66.0,46.8,29.84,WNW,296,0.0,1.0,50,0.00,,,0.00,Wunderground v.1.15,2013-09-07 12:10:00,
2013-09-07 05:15:00,65.8,46.6,29.84,WNW,296,0.0,1.0,50,0.00,,,0.00,Wunderground v.1.15,2013-09-07 12:15:00,
2013-09-07 05:25:00,65.8,46.6,29.84,WNW,296,0.0,1.0,50,0.00,,,0.00,Wunderground v.1.15,2013-09-07 12:25:00,
2013-09-07 05:30:00,65.9,46.7,29.84,WNW,296,0.0,0.0,50,0.00,,,0.00,Wunderground v.1.15,2013-09-07 12:30:00,
2013-09-07 05:35:00,65.9,46.7,29.84,WNW,296,0.0,1.0,50,0.00,,,0.00,Wunderground v.1.15,2013-09-07 12:35:00,
2013-09-07 05:45:00,65.8,47.2,29.85,WNW,296,0.0,0.0,51,0.00,,,0.00,Wunderground v.1.15,2013-09-07 12:45:00,
2013-09-07 05:50:00,65.6,47.0,29.85,WNW,296,0.0,0.0,51,0.00,,,0.00,Wunderground v.1.15,2013-09-07 12:50:00,
2013-09-07 05:55:00,65.7,47.1,29.85,WNW,296,0.0,0.0,51,0.00,,,0.00,Wunderground v.1.15,2013-09-07 12:55:00,
2013-09-07 06:00:00,65.8,47.2,29.85,WNW,296,0.0,0.0,51,0.00,,,0.00,Wunderground v.1.15,2013-09-07 13:00:00,
2013-09-07 06:10:00,65.8,47.2,29.85,WNW,296,0.0,0.0,51,0.00,,,0.00,Wunderground v.1.15,2013-09-07 13:10:00,
2013-09-07 06:15:00,65.9,47.3,29.85,WNW,296,0.0,0.0,51,0.00,,,0.00,Wunderground v.1.15,2013-09-07 13:15:00,
2013-09-07 06:20:00,65.9,47.3,29.85,WNW,296,0.0,0.0,51,0.00,,,0.00,Wunderground v.1.15,2013-09-07 13:20:00,
2013-09-07 06:25:00,65.9,46.7,29.85,WNW,296,0.0,0.0,50,0.00,,,0.00,Wunderground v.1.15,2013-09-07 13:25:00,
2013-09-07 06:30:00,65.9,46.7,29.85,WNW,296,0.0,0.0,50,0.00,,,0.00,Wunderground v.1.15,2013-09-07 13:30:00,
2013-09-07 06:40:00,66.1,46.9,29.85,WNW,296,0.0,0.0,50,0.00,,,0.00,Wunderground v.1.15,2013-09-07 13:40:00,
2013-09-07 06:45:00,66.3,47.1,29.85,WNW,296,0.0,0.0,50,0.00,,,0.00,Wunderground v.1.15,2013-09-07 13:45:00,
2013-09-07 06:50:00,66.4,47.2,29.85,WNW,296,0.0,1.0,50,0.00,,,0.00,Wunderground v.1.15,2013-09-07 13:50:00,
2013-09-07 07:00:00,67.2,47.4,29.86,WNW,296,0.0,1.0,49,0.00,,,0.00,Wunderground v.1.15,2013-09-07 14:00:00,
2013-09-07 07:05:00,67.3,47.5,29.86,WNW,296,0.0,1.0,49,0.00,,,0.00,Wunderground v.1.15,2013-09-07 14:05:00,
2013-09-07 07:15:00,67.6,47.8,29.86,WNW,296,0.0,0.0,49,0.00,,,0.00,Wunderground v.1.15,2013-09-07 14:15:00,
2013-09-07 07:20:00,67.6,47.8,29.86,WNW,296,0.0,0.0,49,0.00,,,0.00,Wunderground v.1.15,2013-09-07 14:20:00,
2013-09-07 07:25:00,67.6,48.3,29.87,WNW,296,0.0,0.0,50,0.00,,,0.00,Wunderground v.1.15,2013-09-07 14:25:00,
2013-09-07 07:30:00,67.6,48.8,29.86,WNW,296,0.0,0.0,51,0.00,,,0.00,Wunderground v.1.15,2013-09-07 14:30:00,
2013-09-07 07:40:00,67.7,48.9,29.87,WNW,296,0.0,0.0,51,0.00,,,0.00,Wunderground v.1.15,2013-09-07 14:40:00,
2013-09-07 07:45:00,67.7,49.4,29.87,WNW,296,0.0,0.0,52,0.00,,,0.00,Wunderground v.1.15,2013-09-07 14:45:00,
2013-09-07 07:55:00,68.2,50.4,29.87,WNW,296,0.0,0.0,53,0.00,,,0.00,Wunderground v.1.15,2013-09-07 14:55:00,
2013-09-07 08:00:00,68.4,50.6,29.87,WNW,296,0.0,1.0,53,0.00,,,0.00,Wunderground v.1.15,2013-09-07 15:00:00,
2013-09-07 08:05:00,68.7,50.9,29.87,WNW,296,0.0,1.0,53,0.00,,,0.00,Wunderground v.1.15,2013-09-07 15:05:00,
2013-09-07 08:10:00,69.0,52.2,29.87,WNW,296,0.0,0.0,55,0.00,,,0.00,Wunderground v.1.15,2013-09-07 15:10:00,
2013-09-07 08:15:00,69.5,52.1,29.87,WNW,296,0.0,0.0,54,0.00,,,0.00,Wunderground v.1.15,2013-09-07 15:15:00,
2013-09-07 08:20:00,70.0,52.6,29.87,WNW,296,0.0,0.0,54,0.00,,,0.00,Wunderground v.1.15,2013-09-07 15:20:00,
2013-09-07 08:25:00,70.5,53.1,29.87,WNW,296,0.0,0.0,54,0.00,,,0.00,Wunderground v.1.15,2013-09-07 15:25:00,
2013-09-07 08:35:00,71.6,53.0,29.87,WNW,296,0.0,0.0,52,0.00,,,0.00,Wunderground v.1.15,2013-09-07 15:35:00,
2013-09-07 08:40:00,72.2,53.6,29.88,WNW,296,0.0,0.0,52,0.00,,,0.00,Wunderground v.1.15,2013-09-07 15:40:00,
2013-09-07 08:45:00,72.8,53.6,29.88,WNW,296,0.0,0.0,51,0.00,,,0.00,Wunderground v.1.15,2013-09-07 15:45:00,
2013-09-07 08:50:00,73.4,54.2,29.88,WNW,296,0.0,0.0,51,0.00,,,0.00,Wunderground v.1.15,2013-09-07 15:50:00,
2013-09-07 08:55:00,74.1,53.7,29.88,WNW,296,0.0,0.0,49,0.00,,,0.00,Wunderground v.1.15,2013-09-07 15:55:00,
2013-09-07 09:00:00,74.6,53.0,29.88,WNW,296,0.0,0.0,47,0.00,,,0.00,Wunderground v.1.15,2013-09-07 16:00:00,
2013-09-07 09:05:00,75.3,51.3,29.88,WNW,296,0.0,0.0,43,0.00,,,0.00,Wunderground v.1.15,2013-09-07 16:05:00,
2013-09-07 09:15:00,76.6,51.1,29.88,WNW,296,0.0,1.0,41,0.00,,,0.00,Wunderground v.1.15,2013-09-07 16:15:00,
2013-09-07 09:20:00,77.5,51.9,29.88,WNW,292,0.0,1.0,41,0.00,,,0.00,Wunderground v.1.15,2013-09-07 16:20:00,
2013-09-07 09:25:00,78.4,52.1,29.88,WNW,292,0.0,1.0,40,0.00,,,0.00,Wunderground v.1.15,2013-09-07 16:25:00,
2013-09-07 09:30:00,79.4,52.3,29.88,WNW,291,0.0,1.0,39,0.00,,,0.00,Wunderground v.1.15,2013-09-07 16:30:00,
2013-09-07 09:35:00,80.0,50.6,29.88,South,186,0.0,2.0,36,0.00,,,0.00,Wunderground v.1.15,2013-09-07 16:35:00,
2013-09-07 09:40:00,80.5,50.3,29.88,South,172,0.0,2.0,35,0.00,,,0.00,Wunderground v.1.15,2013-09-07 16:40:00,
2013-09-07 09:45:00,81.1,50.9,29.88,SSE,166,0.0,2.0,35,0.00,,,0.00,Wunderground v.1.15,2013-09-07 16:45:00,
2013-09-07 09:50:00,81.6,52.1,29.88,SSE,155,0.0,2.0,36,0.00,,,0.00,Wunderground v.1.15,2013-09-07 16:50:00,
2013-09-07 10:00:00,83.0,50.1,29.88,SSE,157,0.0,2.0,32,0.00,,,0.00,Wunderground v.1.15,2013-09-07 17:00:00,
2013-09-07 10:05:00,83.2,49.4,29.88,ENE,76,1.0,6.0,31,0.00,,,0.00,Wunderground v.1.15,2013-09-07 17:05:00,
2013-09-07 10:10:00,83.8,49.9,29.88,SE,132,1.0,1.0,31,0.00,,,0.00,Wunderground v.1.15,2013-09-07 17:10:00,
2013-09-07 10:15:00,84.0,49.2,29.88,SE,146,1.0,4.0,30,0.00,,,0.00,Wunderground v.1.15,2013-09-07 17:15:00,
2013-09-07 10:20:00,84.4,49.6,29.88,SE,136,1.0,1.0,30,0.00,,,0.00,Wunderground v.1.15,2013-09-07 17:20:00,
2013-09-07 10:25:00,84.5,49.7,29.88,SSE,156,1.0,3.0,30,0.00,,,0.00,Wunderground v.1.15,2013-09-07 17:25:00,
2013-09-07 10:35:00,84.7,48.9,29.88,SE,141,2.0,6.0,29,0.00,,,0.00,Wunderground v.1.15,2013-09-07 17:35:00,
2013-09-07 10:40:00,85.0,48.2,29.88,East,89,2.0,2.0,28,0.00,,,0.00,Wunderground v.1.15,2013-09-07 17:40:00,
2013-09-07 10:45:00,85.5,47.7,29.88,SSE,150,2.0,3.0,27,0.00,,,0.00,Wunderground v.1.15,2013-09-07 17:45:00,
2013-09-07 10:50:00,85.9,48.0,29.88,East,90,1.0,6.0,27,0.00,,,0.00,Wunderground v.1.15,2013-09-07 17:50:00,
2013-09-07 10:55:00,85.8,46.9,29.88,SSE,154,2.0,8.0,26,0.00,,,0.00,Wunderground v.1.15,2013-09-07 17:55:00,
2013-09-07 11:00:00,86.0,47.1,29.88,SE,134,2.0,2.0,26,0.00,,,0.00,Wunderground v.1.15,2013-09-07 18:00:00,
2013-09-07 11:05:00,86.4,47.5,29.88,East,81,2.0,4.0,26,0.00,,,0.00,Wunderground v.1.15,2013-09-07 18:05:00,
2013-09-07 11:10:00,86.6,47.6,29.88,East,101,1.0,1.0,26,0.00,,,0.00,Wunderground v.1.15,2013-09-07 18:10:00,
2013-09-07 11:15:00,86.8,47.8,29.88,ENE,77,2.0,2.0,26,0.00,,,0.00,Wunderground v.1.15,2013-09-07 18:15:00,
2013-09-07 11:25:00,86.5,46.5,29.88,SSE,158,3.0,9.0,25,0.00,,,0.00,Wunderground v.1.15,2013-09-07 18:25:00,
2013-09-07 11:30:00,86.8,45.7,29.88,East,90,3.0,6.0,24,0.00,,,0.00,Wunderground v.1.15,2013-09-07 18:30:00,
2013-09-07 11:35:00,86.8,46.8,29.88,ESE,113,2.0,7.0,25,0.00,,,0.00,Wunderground v.1.15,2013-09-07 18:35:00,
2013-09-07 11:40:00,87.1,47.0,29.88,SE,146,2.0,7.0,25,0.00,,,0.00,Wunderground v.1.15,2013-09-07 18:40:00,
2013-09-07 11:50:00,88.0,46.7,29.88,SE,137,2.0,2.0,24,0.00,,,0.00,Wunderground v.1.15,2013-09-07 18:50:00,
2013-09-07 11:55:00,88.5,47.1,29.87,SE,146,2.0,5.0,24,0.00,,,0.00,Wunderground v.1.15,2013-09-07 18:55:00,
2013-09-07 12:00:00,88.2,47.9,29.87,ESE,111,2.0,2.0,25,0.00,,,0.00,Wunderground v.1.15,2013-09-07 19:00:00,
2013-09-07 12:05:00,89.0,47.5,29.87,East,80,1.0,4.0,24,0.00,,,0.00,Wunderground v.1.15,2013-09-07 19:05:00,
2013-09-07 12:10:00,89.6,45.7,29.87,WNW,296,1.0,3.0,22,0.00,,,0.00,Wunderground v.1.15,2013-09-07 19:10:00,
2013-09-07 12:15:00,90.1,46.1,29.87,SSE,157,1.0,4.0,22,0.00,,,0.00,Wunderground v.1.15,2013-09-07 19:15:00,
2013-09-07 12:25:00,90.4,46.4,29.87,NE,48,1.0,2.0,22,0.00,,,0.00,Wunderground v.1.15,2013-09-07 19:25:00,
2013-09-07 12:30:00,90.2,46.2,29.86,NNW,337,2.0,7.0,22,0.00,,,0.00,Wunderground v.1.15,2013-09-07 19:30:00,
2013-09-07 12:35:00,89.8,45.9,29.86,SE,146,2.0,7.0,22,0.00,,,0.00,Wunderground v.1.15,2013-09-07 19:35:00,
2013-09-07 12:40:00,89.6,45.7,29.86,SE,144,1.0,4.0,22,0.00,,,0.00,Wunderground v.1.15,2013-09-07 19:40:00,
2013-09-07 12:45:00,89.9,44.7,29.86,SE,131,2.0,5.0,21,0.00,,,0.00,Wunderground v.1.15,2013-09-07 19:45:00,
2013-09-07 12:55:00,90.3,43.8,29.86,East,95,1.0,4.0,20,0.00,,,0.00,Wunderground v.1.15,2013-09-07 19:55:00,
2013-09-07 13:00:00,90.4,43.9,29.85,ENE,63,1.0,1.0,20,0.00,,,0.00,Wunderground v.1.15,2013-09-07 20:00:00,
2013-09-07 13:05:00,90.6,44.0,29.85,East,84,1.0,5.0,20,0.00,,,0.00,Wunderground v.1.15,2013-09-07 20:05:00,
2013-09-07 13:15:00,91.2,44.5,29.85,South,173,1.0,3.0,20,0.00,,,0.00,Wunderground v.1.15,2013-09-07 20:15:00,
2013-09-07 13:20:00,92.0,43.8,29.85,WNW,301,0.0,3.0,19,0.00,,,0.00,Wunderground v.1.15,2013-09-07 20:20:00,
2013-09-07 13:25:00,92.7,45.8,29.85,SE,126,1.0,3.0,20,0.00,,,0.00,Wunderground v.1.15,2013-09-07 20:25:00,
2013-09-07 13:30:00,92.5,44.2,29.85,ENE,69,1.0,4.0,19,0.00,,,0.00,Wunderground v.1.15,2013-09-07 20:30:00,
2013-09-07 13:40:00,93.2,44.8,29.84,WSW,239,1.0,1.0,19,0.00,,,0.00,Wunderground v.1.15,2013-09-07 20:40:00,
2013-09-07 13:45:00,93.5,46.4,29.84,ESE,123,0.0,2.0,20,0.00,,,0.00,Wunderground v.1.15,2013-09-07 20:45:00,
2013-09-07 13:50:00,94.3,47.1,29.84,NW,325,1.0,1.0,20,0.00,,,0.00,Wunderground v.1.15,2013-09-07 20:50:00,
2013-09-07 13:55:00,94.8,48.8,29.84,NNW,345,1.0,3.0,21,0.00,,,0.00,Wunderground v.1.15,2013-09-07 20:55:00,
2013-09-07 14:00:00,94.4,49.7,29.83,West,275,1.0,7.0,22,0.00,,,0.00,Wunderground v.1.15,2013-09-07 21:00:00,
2013-09-07 14:05:00,94.5,52.1,29.83,NW,305,1.0,8.0,24,0.00,,,0.00,Wunderground v.1.15,2013-09-07 21:05:00,
2013-09-07 14:10:00,94.2,51.9,29.83,WSW,258,2.0,10.0,24,0.00,,,0.00,Wunderground v.1.15,2013-09-07 21:10:00,
2013-09-07 14:20:00,93.8,51.5,29.83,West,263,2.0,8.0,24,0.00,,,0.00,Wunderground v.1.15,2013-09-07 21:20:00,
2013-09-07 14:25:00,93.6,51.4,29.83,West,260,2.0,8.0,24,0.00,,,0.00,Wunderground v.1.15,2013-09-07 21:25:00,
2013-09-07 14:30:00,93.8,50.4,29.82,West,261,2.0,9.0,23,0.00,,,0.00,Wunderground v.1.15,2013-09-07 21:30:00,
2013-09-07 14:35:00,94.2,50.7,29.82,WSW,252,2.0,9.0,23,0.00,,,0.00,Wunderground v.1.15,2013-09-07 21:35:00,
2013-09-07 14:40:00,94.7,48.7,29.82,West,281,2.0,2.0,21,0.00,,,0.00,Wunderground v.1.15,2013-09-07 21:40:00,
2013-09-07 14:45:00,94.0,48.1,29.82,West,281,2.0,8.0,21,0.00,,,0.00,Wunderground v.1.15,2013-09-07 21:45:00,
2013-09-07 14:55:00,93.8,49.2,29.82,NW,320,2.0,8.0,22,0.00,,,0.00,Wunderground v.1.15,2013-09-07 21:55:00,
2013-09-07 15:00:00,94.2,48.3,29.82,NW,304,2.0,2.0,21,0.00,,,0.00,Wunderground v.1.15,2013-09-07 22:00:00,
2013-09-07 15:05:00,94.2,49.5,29.82,SW,232,1.0,5.0,22,0.00,,,0.00,Wunderground v.1.15,2013-09-07 22:05:00,
2013-09-07 15:15:00,94.6,48.6,29.82,NW,323,1.0,3.0,21,0.00,,,0.00,Wunderground v.1.15,2013-09-07 22:15:00,
2013-09-07 15:25:00,94.4,48.4,29.81,WSW,252,1.0,3.0,21,0.00,,,0.00,Wunderground v.1.15,2013-09-07 22:25:00,
2013-09-07 15:30:00,94.2,48.3,29.81,NW,304,1.0,7.0,21,0.00,,,0.00,Wunderground v.1.15,2013-09-07 22:30:00,
2013-09-07 15:35:00,93.8,48.0,29.81,West,266,2.0,7.0,21,0.00,,,0.00,Wunderground v.1.15,2013-09-07 22:35:00,
2013-09-07 15:40:00,92.9,47.2,29.81,WSW,251,3.0,3.0,21,0.00,,,0.00,Wunderground v.1.15,2013-09-07 22:40:00,
2013-09-07 15:45:00,92.8,47.1,29.81,NW,312,2.0,6.0,21,0.00,,,0.00,Wunderground v.1.15,2013-09-07 22:45:00,
2013-09-07 15:55:00,92.9,48.5,29.81,West,263,1.0,5.0,22,0.00,,,0.00,Wunderground v.1.15,2013-09-07 22:55:00,
2013-09-07 16:00:00,92.8,45.8,29.81,NW,321,2.0,8.0,20,0.00,,,0.00,Wunderground v.1.15,2013-09-07 23:00:00,
2013-09-07 16:05:00,92.5,45.6,29.81,NNW,346,3.0,8.0,20,0.00,,,0.00,Wunderground v.1.15,2013-09-07 23:05:00,
2013-09-07 16:15:00,92.8,45.8,29.81,WSW,248,2.0,9.0,20,0.00,,,0.00,Wunderground v.1.15,2013-09-07 23:15:00,
2013-09-07 16:20:00,92.6,45.7,29.80,NNW,331,2.0,2.0,20,0.00,,,0.00,Wunderground v.1.15,2013-09-07 23:20:00,
2013-09-07 16:25:00,93.1,46.1,29.80,NW,318,1.0,4.0,20,0.00,,,0.00,Wunderground v.1.15,2013-09-07 23:25:00,
2013-09-07 16:35:00,91.9,43.7,29.80,WNW,284,3.0,9.0,19,0.00,,,0.00,Wunderground v.1.15,2013-09-07 23:35:00,
2013-09-07 16:40:00,91.1,44.4,29.80,WNW,292,3.0,7.0,20,0.00,,,0.00,Wunderground v.1.15,2013-09-07 23:40:00,
2013-09-07 16:45:00,90.6,45.3,29.80,WNW,288,3.0,7.0,21,0.00,,,0.00,Wunderground v.1.15,2013-09-07 23:45:00,
2013-09-07 16:55:00,90.3,45.1,29.80,NNW,340,3.0,6.0,21,0.00,,,0.00,Wunderground v.1.15,2013-09-07 23:55:00,
2013-09-07 17:00:00,90.0,46.0,29.80,WNW,295,2.0,9.0,22,0.00,,,0.00,Wunderground v.1.15,2013-09-08 00:00:00,
2013-09-07 17:05:00,89.8,45.9,29.80,West,278,3.0,9.0,22,0.00,,,0.00,Wunderground v.1.15,2013-09-08 00:05:00,
2013-09-07 17:10:00,89.3,47.8,29.80,West,259,3.0,3.0,24,0.00,,,0.00,Wunderground v.1.15,2013-09-08 00:10:00,
2013-09-07 17:20:00,90.1,48.4,29.80,West,271,1.0,5.0,24,0.00,,,0.00,Wunderground v.1.15,2013-09-08 00:20:00,
2013-09-07 17:30:00,89.3,47.8,29.80,WSW,241,2.0,2.0,24,0.00,,,0.00,Wunderground v.1.15,2013-09-08 00:30:00,
2013-09-07 17:35:00,88.9,48.5,29.80,West,269,1.0,8.0,25,0.00,,,0.00,Wunderground v.1.15,2013-09-08 00:35:00,
2013-09-07 17:40:00,88.3,46.9,29.80,NW,315,1.0,1.0,24,0.00,,,0.00,Wunderground v.1.15,2013-09-08 00:40:00,
2013-09-07 17:50:00,87.2,47.1,29.80,West,264,1.0,1.0,25,0.00,,,0.00,Wunderground v.1.15,2013-09-08 00:50:00,
2013-09-07 17:55:00,86.8,46.8,29.80,West,261,1.0,4.0,25,0.00,,,0.00,Wunderground v.1.15,2013-09-08 00:55:00,
2013-09-07 18:00:00,86.5,45.4,29.80,West,281,0.0,3.0,24,0.00,,,0.00,Wunderground v.1.15,2013-09-08 01:00:00,
2013-09-07 18:10:00,85.6,45.7,29.80,SW,231,1.0,1.0,25,0.00,,,0.00,Wunderground v.1.15,2013-09-08 01:10:00,
2013-09-07 18:15:00,85.2,45.4,29.80,WNW,288,1.0,5.0,25,0.00,,,0.00,Wunderground v.1.15,2013-09-08 01:15:00,
2013-09-07 18:20:00,84.8,46.1,29.80,NW,321,1.0,6.0,26,0.00,,,0.00,Wunderground v.1.15,2013-09-08 01:20:00,
2013-09-07 18:25:00,84.5,46.8,29.80,NW,321,0.0,6.0,27,0.00,,,0.00,Wunderground v.1.15,2013-09-08 01:25:00,
2013-09-07 18:35:00,83.8,47.2,29.80,NW,309,0.0,2.0,28,0.00,,,0.00,Wunderground v.1.15,2013-09-08 01:35:00,
2013-09-07 18:45:00,82.8,47.3,29.80,WSW,249,0.0,3.0,29,0.00,,,0.00,Wunderground v.1.15,2013-09-08 01:45:00,
2013-09-07 18:55:00,81.7,47.2,29.80,WSW,252,0.0,3.0,30,0.00,,,0.00,Wunderground v.1.15,2013-09-08 01:55:00,
2013-09-07 19:00:00,81.2,47.7,29.80,West,279,0.0,2.0,31,0.00,,,0.00,Wunderground v.1.15,2013-09-08 02:00:00,
2013-09-07 19:05:00,80.7,48.1,29.80,West,279,0.0,2.0,32,0.00,,,0.00,Wunderground v.1.15,2013-09-08 02:05:00,
2013-09-07 19:15:00,79.7,47.2,29.81,West,279,0.0,0.0,32,0.00,,,0.00,Wunderground v.1.15,2013-09-08 02:15:00,
2013-09-07 19:20:00,79.2,47.6,29.81,NE,46,0.0,1.0,33,0.00,,,0.00,Wunderground v.1.15,2013-09-08 02:20:00,
2013-09-07 19:25:00,78.8,47.3,29.81,NNW,342,0.0,1.0,33,0.00,,,0.00,Wunderground v.1.15,2013-09-08 02:25:00,
2013-09-07 19:30:00,78.3,47.6,29.81,WNW,300,0.0,1.0,34,0.00,,,0.00,Wunderground v.1.15,2013-09-08 02:30:00,
2013-09-07 19:40:00,77.4,47.6,29.81,WNW,301,0.0,0.0,35,0.00,,,0.00,Wunderground v.1.15,2013-09-08 02:40:00,
2013-09-07 19:45:00,76.9,47.9,29.81,WNW,301,0.0,0.0,36,0.00,,,0.00,Wunderground v.1.15,2013-09-08 02:45:00,
2013-09-07 19:50:00,76.4,48.2,29.81,WNW,301,0.0,0.0,37,0.00,,,0.00,Wunderground v.1.15,2013-09-08 02:50:00,
2013-09-07 20:00:00,75.2,48.5,29.82,WNW,301,0.0,1.0,39,0.00,,,0.00,Wunderground v.1.15,2013-09-08 03:00:00,
2013-09-07 20:05:00,74.7,48.8,29.82,WNW,301,0.0,1.0,40,0.00,,,0.00,Wunderground v.1.15,2013-09-08 03:05:00,
2013-09-07 20:10:00,74.3,49.1,29.82,WNW,301,0.0,0.0,41,0.00,,,0.00,Wunderground v.1.15,2013-09-08 03:10:00,
2013-09-07 20:15:00,73.8,48.6,29.82,WNW,301,0.0,0.0,41,0.00,,,0.00,Wunderground v.1.15,2013-09-08 03:15:00,
2013-09-07 20:25:00,72.9,49.1,29.83,WNW,301,0.0,0.0,43,0.00,,,0.00,Wunderground v.1.15,2013-09-08 03:25:00,
2013-09-07 20:30:00,72.5,49.3,29.83,WNW,301,0.0,0.0,44,0.00,,,0.00,Wunderground v.1.15,2013-09-08 03:30:00,
2013-09-07 20:40:00,71.9,48.8,29.83,WNW,301,0.0,0.0,44,0.00,,,0.00,Wunderground v.1.15,2013-09-08 03:40:00,
2013-09-07 20:45:00,71.5,49.0,29.84,WNW,301,0.0,0.0,45,0.00,,,0.00,Wunderground v.1.15,2013-09-08 03:45:00,
2013-09-07 20:50:00,71.3,48.9,29.84,WNW,301,0.0,0.0,45,0.00,,,0.00,Wunderground v.1.15,2013-09-08 03:50:00,
2013-09-07 20:55:00,71.1,48.7,29.84,WNW,301,0.0,1.0,45,0.00,,,0.00,Wunderground v.1.15,2013-09-08 03:55:00,
2013-09-07 21:00:00,71.0,48.6,29.84,WNW,301,0.0,1.0,45,0.00,,,0.00,Wunderground v.1.15,2013-09-08 04:00:00,
2013-09-07 21:05:00,71.0,49.2,29.84,WNW,301,0.0,1.0,46,0.00,,,0.00,Wunderground v.1.15,2013-09-08 04:05:00,
2013-09-07 21:10:00,70.8,49.0,29.84,WNW,301,0.0,0.0,46,0.00,,,0.00,Wunderground v.1.15,2013-09-08 04:10:00,
2013-09-07 21:15:00,70.7,48.9,29.84,WNW,301,0.0,1.0,46,0.00,,,0.00,Wunderground v.1.15,2013-09-08 04:15:00,
2013-09-07 21:20:00,70.6,48.8,29.84,WNW,301,0.0,0.0,46,0.00,,,0.00,Wunderground v.1.15,2013-09-08 04:20:00,
2013-09-07 21:25:00,70.6,49.4,29.84,WNW,301,0.0,1.0,47,0.00,,,0.00,Wunderground v.1.15,2013-09-08 04:25:00,
2013-09-07 21:30:00,70.9,49.1,29.84,WNW,301,0.0,1.0,46,0.00,,,0.00,Wunderground v.1.15,2013-09-08 04:30:00,
2013-09-07 21:35:00,71.2,49.4,29.84,WNW,302,0.0,1.0,46,0.00,,,0.00,Wunderground v.1.15,2013-09-08 04:35:00,
2013-09-07 21:40:00,71.4,48.9,29.84,NW,304,0.0,2.0,45,0.00,,,0.00,Wunderground v.1.15,2013-09-08 04:40:00,
2013-09-07 21:45:00,71.3,48.9,29.84,NW,304,1.0,2.0,45,0.00,,,0.00,Wunderground v.1.15,2013-09-08 04:45:00,
2013-09-07 21:50:00,71.2,49.4,29.84,NW,313,0.0,3.0,46,0.00,,,0.00,Wunderground v.1.15,2013-09-08 04:50:00,
2013-09-07 21:55:00,70.5,48.7,29.84,NW,312,1.0,3.0,46,0.00,,,0.00,Wunderground v.1.15,2013-09-08 04:55:00,
2013-09-07 22:00:00,69.9,49.3,29.84,NW,312,0.0,2.0,48,0.00,,,0.00,Wunderground v.1.15,2013-09-08 05:00:00,
2013-09-07 22:10:00,69.2,49.2,29.84,NW,312,0.0,1.0,49,0.00,,,0.00,Wunderground v.1.15,2013-09-08 05:10:00,
2013-09-07 22:15:00,68.9,48.9,29.84,NW,312,0.0,1.0,49,0.00,,,0.00,Wunderground v.1.15,2013-09-08 05:15:00,
2013-09-07 22:20:00,68.6,49.2,29.84,NW,312,0.0,0.0,50,0.00,,,0.00,Wunderground v.1.15,2013-09-08 05:20:00,
2013-09-07 22:25:00,68.5,49.1,29.84,NW,312,0.0,0.0,50,0.00,,,0.00,Wunderground v.1.15,2013-09-08 05:25:00,
2013-09-07 22:30:00,68.3,48.9,29.84,NW,312,0.0,0.0,50,0.00,,,0.00,Wunderground v.1.15,2013-09-08 05:30:00,
2013-09-07 22:35:00,68.1,48.8,29.84,NW,312,0.0,0.0,50,0.00,,,0.00,Wunderground v.1.15,2013-09-08 05:35:00,
2013-09-07 22:40:00,68.0,48.7,29.85,NW,312,0.0,0.0,50,0.00,,,0.00,Wunderground v.1.15,2013-09-08 05:40:00,
2013-09-07 22:50:00,68.4,48.5,29.84,NW,313,0.0,2.0,49,0.00,,,0.00,Wunderground v.1.15,2013-09-08 05:50:00,
2013-09-07 22:55:00,68.4,48.5,29.84,NW,313,0.0,2.0,49,0.00,,,0.00,Wunderground v.1.15,2013-09-08 05:55:00,
2013-09-07 23:05:00,68.4,48.5,29.84,NW,313,0.0,1.0,49,0.00,,,0.00,Wunderground v.1.15,2013-09-08 06:05:00,
2013-09-07 23:10:00,68.6,48.7,29.84,NW,313,0.0,1.0,49,0.00,,,0.00,Wunderground v.1.15,2013-09-08 06:10:00,
2013-09-07 23:15:00,68.6,48.7,29.84,NW,313,0.0,1.0,49,0.00,,,0.00,Wunderground v.1.15,2013-09-08 06:15:00,
2013-09-07 23:20:00,68.4,47.9,29.84,NW,313,0.0,0.0,48,0.00,,,0.00,Wunderground v.1.15,2013-09-08 06:20:00,
2013-09-07 23:30:00,68.5,48.0,29.84,NW,313,0.0,1.0,48,0.00,,,0.00,Wunderground v.1.15,2013-09-08 06:30:00,
2013-09-07 23:35:00,68.3,46.7,29.84,NW,313,0.0,1.0,46,0.00,,,0.00,Wunderground v.1.15,2013-09-08 06:35:00,
2013-09-07 23:45:00,68.7,46.5,29.84,NW,313,0.0,1.0,45,0.00,,,0.00,Wunderground v.1.15,2013-09-08 06:45:00,
2013-09-07 23:50:00,69.0,46.8,29.84,NW,313,0.0,1.0,45,0.00,,,0.00,Wunderground v.1.15,2013-09-08 06:50:00,